OPS 4682 DEB, 19950

Orbit data source: Space-Track

OPS 4682 DEB, 19950 is space debris in LEO originally from a launch on Sat, 03 Apr 1965 UTC launched from the Air Force Western Test Range (AFWTR). Debris objects in space refer to the collection of defunct objects orbiting the Earth. Examples of debris include non-operational satellites, rocket bodies, and fragments generated from explosions, collisions, or faulty payload assembly.

Loading next visibility...
Identifier
19950, 1965-027AY
Orbit
LEO
Country
Flag of USUS
Related business
Manufacturer
Unknown
Mission
Spacecraft
Bus & Motor
Unknown
Mass
Unknown
Launch date (UTC)
1965-04-03 (61 years ago)
Launch vehicle
Unknown
Launch site
Air Force Western Test Range (AFWTR)
Object type
Payload
Rocket body
Debris
Shape & HBR
Unknown shape, 0.1 m
Radar Cross Section
Small (<0.1 m²)

Expand to show TLE details & history
Last TLE update: 16 hours ago

TLE from 16 hours ago
0 OPS 4682 DEB
1 19950U 65027AY  26138.39530855 -.00000213  00000-0 -78425-3 0  9999
2 19950  90.2434   8.6649 0028726 268.6583  91.1246 12.94997568548790
Epoch: 2026-05-18T09:29Z
TLE epoch observation values (Epoch: 2026-05-18T09:29:14.658Z)
Latitude
0.00003°
Longitude
-9.73036°
Altitude
1,285.121 km
Speed
7.213 km/s
True Right ascension
00h 34m 39s
True Declination
0° 00' 00"
Sunlit
Object was in daylight at epoch
Visualization orbit readout
Latitude
Unknown
Longitude
Unknown
Altitude
Unknown
Speed
Unknown
Apparent Right ascension
Unknown
Apparent Declination
Unknown
Sunlit
N/A
Visualization observer readout
Local Sidereal Time
09:58:23
Azimuth
Unknown
Elevation
Unknown
Doppler factor
Unknown
Orbital elements
Apogee altitude
1,300.879 km
Perigee altitude
1,256.888 km
Semi-major axis
7,657.021 km
Eccentricity
0.00287
Inclination
90.2434°
RAAN
8.6649°
Arg. of periapsis
268.6583°
True anomaly
91.45369°
Mean anomaly
91.1246°
Eccentric anomaly
91.28915°
Mean motion
3.23932 °/min
Orbital period
111.13 mins
BSTAR
-0.00078425
Loading maneuver chart data...
Computing Atmospheric mass density...
Loading historical data...
Loading historical data...
Loading historical data...
Loading historical data...
Loading historical data...
Loading historical data...
Loading historical data...

Documentation

Showing up to 5 results
|